Location: Austin
(30.3000°N, 97.7500°W)
Time: 05:20:20
(UTC-06:00)

Cosmos 1733 Rocket - Pass Details

Date: 05 February 2026
Orbit: 596 x 621 km, 82.5° (Epoch: 14 February)

Event Time Altitude Azimuth Distance (km) Brightness Sun altitude
Rises 05:37:45 0° 176° (S) 2,879 6.6 -22.2°
Reaches altitude 10° 05:40:00 10° 172° (S) 1,975 5.8 -21.7°
Maximum altitude 05:44:18 58° 93° (E) 721 3.6 -20.8°
Drops below altitude 10° 05:48:36 10° 15° (NNE) 1,976 5.7 -19.9°
Sets 05:50:50 0° 11° (NNE) 2,881 6.5 -19.4°
